    Orbital elements:
    2014 JP80
    Epoch 2016 July 31.0 TT = JDT 2457600.5                 MPC
    M 198.70918              (2000.0)            P               Q
    n   0.00398535     Peri.  322.58633     -0.34133229     -0.92155831
    a  39.3995662      Node   146.20333     +0.92259349     -0.36611881
    e   0.0751914      Incl.   19.42508     +0.17975961     +0.12917934
    P 247              H    4.9           G   0.15           U   2
    Residuals in seconds of arc
    100719 F51  0.1-  0.1-    140704 F51  0.0   0.0     150616 F51  0.1-  0.1+
    100719 F51  0.1+  0.0     140704 F51  0.0   0.1-    150616 F51  0.0   0.0
    100719 F51  0.0   0.0     140704 F51  0.1+  0.1-    150616 F51  0.0   0.0
    100719 F51  0.0   0.0     140704 F51  0.0   0.1-    150622 F51  0.1+  0.1+
    130421 F51  0.0   0.0     140726 F51  0.0   0.0     150622 F51  0.0   0.1-
    130421 F51  0.1-  0.2+    140726 F51  0.0   0.0     150622 F51  0.1+  0.0
    130421 F51  0.0   0.2+    140726 F51  0.0   0.0     150622 F51  0.1+  0.1+
    130421 F51  0.2-  0.0     140726 F51  0.2-  0.2-    150623 F51  0.1+  0.1+
    130712 F51  0.0   0.1+    140728 F51  0.0   0.0     150623 F51  0.0   0.0
    130712 F51  0.1+  0.0     140728 F51  0.0   0.0     150623 F51  0.0   0.1+
    130712 F51  0.0   0.1+    140728 F51  0.0   0.1-    150623 F51  0.0   0.0
    130712 F51  0.1+  0.1+    140728 F51  0.0   0.0     150626 F51  0.0   0.1+
    131027 F51  0.0   0.1-    140803 F51  0.0   0.1+    150626 F51  0.0   0.1+
    131027 F51  0.2-  0.0     140803 F51  0.0   0.1+    150626 F51  0.1+  0.1+
    131027 F51  0.1-  0.0     140803 F51  0.0   0.1+    150626 F51  0.0   0.0
    131027 F51  0.0   0.1-    140803 F51  0.0   0.0     150709 F51  0.1-  0.0
    140507 F51  0.0   0.2-    140816 F51  0.1-  0.1+    150709 F51  0.0   0.0
    140507 F51  0.1+  0.2-    140816 F51  0.0   0.0     150709 F51  0.0   0.1+
    140507 F51  0.0   0.2-    140816 F51  0.0   0.0     150709 F51  0.2-  0.1-
    140507 F51  0.0   0.1-    140816 F51  0.0   0.0     150711 F51  0.2-  0.2+
    140602 F51  0.0   0.0     140821 F51  0.0   0.1-    150711 F51  0.0   0.2+
    140602 F51  0.1+  0.0     140821 F51  0.0   0.1-    150711 F51  0.2+  0.0
    140602 F51  0.0   0.1+    140821 F51  0.0   0.0     150711 F51  0.2-  0.2-
    140602 F51  0.1+  0.0     141109 F51  0.0   0.2+    150727 F51  0.2-  0.4-
    140622 F51  0.0   0.2-    141109 F51  0.2+  0.3-    150727 F51  0.2-  0.0
    140622 F51  0.1-  0.1-    141109 F51  0.1+  0.1+    150727 F51  0.0   0.0
    140622 F51  0.0   0.1+    141109 F51  0.1+  0.0     150727 F51  0.1+  0.0
    140622 F51  0.1+  0.0     150616 F51  0.2+  0.1-
    
    Ephemeris:
    2014 JP80                a,e,i = 39.40, 0.08, 19                 q = 36.437
    Date    TT    R. A. (2000) Decl.     Delta      r     Elong.  Phase     V
    2016 06 17    20 29 37.9 -11 41 14  41.4604 42.2287   138.7     0.9    21.3
    ...
    2016 07 02    20 28 40.2 -11 44 19  41.3206 42.2279   152.9     0.6    21.2
    ...
    2016 07 10    20 28 05.3 -11 46 26  41.2692 42.2274   160.2     0.5    21.2
    ...
    2016 07 16    20 27 37.9 -11 48 14  41.2422 42.2271   165.5     0.3    21.2
    2016 07 17    20 27 33.2 -11 48 33  41.2387 42.2270   166.4     0.3    21.2
    2016 07 18    20 27 28.6 -11 48 52  41.2354 42.2270   167.2     0.3    21.2
    ...
    2016 07 24    20 27 00.3 -11 50 50  41.2219 42.2266   171.4     0.2    21.2
    ...
    2016 08 01    20 26 22.4 -11 53 39  41.2200 42.2262   172.3     0.2    21.2
    ...
    2016 08 16    20 25 13.4 -11 59 19  41.2663 42.2253   161.0     0.4    21.2
    
    A. U. Tomatic                (C) Copyright 2016 MPC           M.P.E.C. 2016-O143
    

    Read MPEC 2016-O142 Read MPEC 2016-O144


    MPEC number:

    Enter an MPEC number in one of the following forms:

    • 1997-B01 (the full form)
    • J97B01 (the packed version of the full form)
    • B01 (the abbreviated form)